Regional Weather Roundup
Issued by NWS

Home | Current Version | Previous Version | Text Only | Print | Product List | Glossary On
Versions: 1 2 3 4 5 6 7 8 9 10 11 12 13 14 15 16 17 18 19 20 21 22 23 24 25 26 27 28 29 30 31 32 33 34 35 36 37 38 39 40 41 42 43 44 45 46 47 48 49 50
000
ASHW40 PHFO 240010
RWRHI

WEATHER ROUNDUP FOR HAWAII
NATIONAL WEATHER SERVICE HONOLULU HI
200 PM HST TUE SEP 23 2014

THIS IS AN AUTOMATED REPORT THAT HAS NOT BEEN QUALITY CONTROLLED.

NOTE..."FAIR" INDICATES FEW OR NO CLOUDS BELOW 12,000 FEET WITH NO
SIGNIFICANT WEATHER AND/OR OBSTRUCTIONS TO VISIBILITY.

* - THESE SITES REPORT LIMITED FIELDS

HIZ001>004-240100-
KAUAI-NIIHAU-

CITY           SKY/WX    TMP DP  RH WIND       PRES   REMARKS
LIHUE APT      PTSUNNY   87  73  62 NE14      30.05F HX  94
PORT ALLEN*      N/A     86 N/A N/A NE17G25     N/A
POIPU*           N/A     88 N/A N/A NE10G20     N/A
PRINCEVILLE*   NOT AVBL
KOKOLE POINT*  NOT AVBL
MOLOAA DAIRY*  NOT AVBL
WAIMEA HTS*    NOT AVBL
PUU OPAE*      NOT AVBL
PUU LUA*       NOT AVBL
MAKAHA RIDGE*  NOT AVBL
$$

HIZ005>011-240100-
OAHU-

CITY           SKY/WX    TMP DP  RH WIND       PRES   REMARKS
HONOLULU       MOSUNNY   90  61  37 E21G30    30.00F HX  90
KALAELOA       SUNNY     91  64  40 NE9       30.01F HX  92
KANEOHE MCB    SUNNY     86  71  60 E12G18    30.03F HX  91
WHEELER FIELD  FAIR      85  65  52 NE15      30.03F
BELLOWS*       NOT AVBL
KAHUKU*        NOT AVBL
WHEELER*       NOT AVBL
WAIANAE HARBOR NOT AVBL
DILLINGHAM*      N/A     95  66  38 NE10G20     N/A  HX  98
KAHUKU TRN*      N/A     84  68  58 E12G24      N/A
KAWAILOA*      NOT AVBL
KII*             N/A     84  73  70 E17         N/A  HX  91
MAKUA RANGE*     N/A     93  63  36 E9G17       N/A  HX  94
OAHU FOREST NW NOT AVBL
SCHOFIELD BRK*   N/A     84  61  45 MISG        N/A
SCHOFIELD S*   NOT AVBL
WAIANAE VLY*   NOT AVBL
KUAOKALA*      NOT AVBL
HONOULIUULI*   NOT AVBL
MOKUOLOE IS*   NOT AVBL
PALEHUA*       NOT AVBL
WAIAWA PHB*    NOT AVBL
$$

HIZ012>013-240100-
MOLOKAI-

CITY           SKY/WX    TMP DP  RH WIND       PRES   REMARKS
MOLOKAI AIRPT  MOSUNNY   85  71  63 N14G33    30.01F HX  90
KALAUPAPA      NOT AVBL
MAKAPULAPAI*   NOT AVBL
MOLOKAI 1*     NOT AVBL
PUU ALII*      NOT AVBL
$$

HIZ016-240100-
KAHOOLAWE-

CITY           SKY/WX    TMP DP  RH WIND       PRES   REMARKS
KAHOOLAWE*     NOT AVBL
HAKIOAWA*      NOT AVBL
HONOKANAIA*      N/A     88  69  53 NE20G32     N/A  HX  92
KANELOA*         N/A     82  70  65 E23G41    29.24F
KEALIALALO*    NOT AVBL
LUA MAKIKA*    NOT AVBL
$$

HIZ014>015-240100-
LANAI-

CITY           SKY/WX    TMP DP  RH WIND       PRES   REMARKS
LANAI CITY     FAIR      84  70  61 NE23      30.05F
LANAI 1*       NOT AVBL
$$

HIZ017>028-240100-
MAUI-

CITY           SKY/WX    TMP DP  RH WIND       PRES   REMARKS
KAHULUI        MOSUNNY   89  69  51 NE24G33   29.99F HX  93
KAPALUA-W MAUI MOSUNNY   86  68  54 NE21G29   30.02
HANA AIRPORT   PTSUNNY   84  70  61 NE9       30.05S
HANA*          NOT AVBL
HALEAKALA SUMM   N/A     54  12  19 E29         N/A
MAALAEA BAY*   NOT AVBL
HALEAKALA*     NOT AVBL
KAUPO GAP*     NOT AVBL
KULA 1*          N/A     68  58  71 W5G10       N/A
$$

HIZ023>026-240100-
BIG ISLAND OF HAWAII COAST AND LOWER SLOPES-

CITY           SKY/WX    TMP DP  RH WIND       PRES   REMARKS
KAILUA KONA    MOSUNNY   88  71  57 SW12      29.96F HX  94
HILO           MOSUNNY   87  69  54 E10       30.01F HX  91
HONOKAA*       NOT AVBL
KAWAIHAE MWT*  NOT AVBL
KAWAIHAE*      NOT AVBL
SOUTH POINT*   NOT AVBL
UPOLU AIRPORT* NOT AVBL
KAMUELA*       PTCLDY    81  64  57 NE21      30.10S
HAKALAU*         N/A     70  36  29 SE5G13      N/A
KALOKO-HONOKO* NOT AVBL
PALI 2*          N/A     84  59  42 NE12G22     N/A
KEALAKOMO*       N/A     88  72  58 E20G28      N/A  HX  94
KAUPULEHU*     NOT AVBL
KAPAPALA*        N/A     81  67  61 E7G18       N/A
LOWER KAHUKU*  NOT AVBL
PUHE CS*       NOT AVBL
PUHO CS*       NOT AVBL
PTA KEAMUKU*     N/A     75  61  60 N15G28      N/A
WAIKOLOA*      NOT AVBL
$$

HIZ027>028-240100-
BIG ISLAND OF HAWAII INTERIOR AND SUMMMITS-

CITY           SKY/WX    TMP DP  RH WIND       PRES   REMARKS
BRADSHAW FIELD SUNNY     72  35  26 SE20G29   30.33F
MK VISITOR CEN NOT AVBL
MAUNA KEA*       N/A     43  -8  11 SE41        N/A
MAUNA LOA*     NOT AVBL
MAUNA LOA 1*   NOT AVBL
PTA KIPUKA*      N/A     73  59  60 N10G18      N/A
PTA RANGE 17*    N/A     72  57  60 NW9G20      N/A
PTA WEST*        N/A    N/A N/A N/A NW13G23     N/A
NENE CABIN*    NOT AVBL
AHUMOA*        NOT AVBL
PTA PORTABLE*  NOT AVBL
PUU MALI*      NOT AVBL
$$

HIC003-240100-
NORTHWEST ISLANDS-

CITY           SKY/WX    TMP DP  RH WIND       PRES   REMARKS
MIDWAY ISLAND  MOSUNNY   90  79  70 SE13      30.13F HX 105
MIDWAY NOS*    NOT AVBL
FRENCH FRIGATE NOT AVBL
$$

PHZ110>124-180-240100-
BUOY REPORTS

STATION/POSITION TIME  TEMP    WIND        PRES    WAVE   SWELL
                       AIR SEA DIR/SP/G            HT/PER HT/DIR
                 (UTC) (F)     (DEG/KT/KT) (MB)    (FT/S) (FT/D)
BUOY 51001       NOT AVBL
BUOY 51101       NOT AVBL
BUOY 51100       0000   80 82   80/  6/  8 1017.6F
BUOY 51003       2300   83 83   60/ 17/ 21 1015.8F   6/ 7   5
BUOY 51004       NOT AVBL
BARBERS PT BUOY  NOT AVBL
WAIMEA BAY BUOY  0000      83                N/A     3/ 8
KAILUA BAY BUOY  0000      82                N/A     5/ 6   2/100
LANAI BUOY       NOT AVBL
BARBERS PT 2     0000      83                N/A     4/ 7   2/210
PAUWELA MAUI     0000      81                N/A     4/ 6   2/350
HILO             0000      82                N/A     5/ 6   2/110
KANEOHE BAY BUOY NOT AVBL
HANALEI KAUAI    NOT AVBL
KAHULUI HARBOR   0000   81 83   50/ 19/ 27 1015.6F
HONOLULU HARBOR  0000   87      70/  7/ 10 1016.5S
KILO NALU        NOT AVBL
HILO HARBOR      0000   81     350/ 10/ 14 1015.8F
MOKUOLOE         0000   84 85   80/ 11/ 16 1017.3F
NAWILIWILI       0000      84                N/A
WHOTS BUOY       NOT AVBL
BUOY 51028       NOT AVBL
$$

......................KEY........................................
  SKY/WX - SKY CONDITIONS/PRESENT WEATHER
  TMP    - TEMPERATURE IN FAHRENHEIT
  DWPT   - DEWPOINT IN FAHRENHEIT
  RH     - RELATIVE HUMIDITY IN PERCENT
  WIND   - DIRECTION AND SPEED /MPH FOR ISLANDS...KTS FOR BUOYS/
  PRES   - MEAN SEA LEVEL PRESSURE IN INCHES OF HG
  VSB    - VISIBILITY IN MILES
  HX     - HEAT INDEX
  WCI    - WIND CHILL INDEX
  VRB    - VARIABLE WIND DIRECTION
  N/A    - NOT AVAILABLE


USA.gov is the U.S. government's official web portal to all federal, state and local government web resources and services.